Location: Newark
(40.9833°N, 0.0333°W)
Time: 17:20:15
(UTC+00:00)

deb Explorer IX - Pass Details

Date: 31 October 2020
Orbit: 538 x 1104 km, 38.8° (Epoch: 22 November)

Event Time Altitude Azimuth Distance (km) Brightness Sun altitude
Rises 09:20:14 0° 279° (W) 3,678 ? 25.5°
Reaches altitude 10° 09:23:00 10° 271° (W) 2,798 ? 25.8°
Maximum altitude 09:29:12 36° 208° (SSW) 1,626 ? 26.5°
Drops below altitude 10° 09:35:45 10° 144° (SE) 2,952 ? 27.3°
Sets 09:38:45 0° 136° (SE) 3,903 ? 27.6°
